Miscellaneous Local Product
Issued by NWS Hastings, NE

Home | Current Version | Previous Version | Graphics & Text | Print | Product List | Glossary On
Versions: 1 2 3 4 5 6 7 8 9 10 11 12 13 14 15 16 17 18 19 20 21 22 23 24 25 26 27 28 29 30 31 32 33 34 35 36 37 38 39 40 41 42 43 44 45 46 47 48 49 50
668
AXUS43 KGID 112002
MISGRI

GID CWA HOURLY WEATHER ROUNDUP
NATIONAL WEATHER SERVICE HASTINGS NE
200 PM CST THU FEB 11 2016

NOTE: "FAIR" INDICATES FEW OR NO CLOUDS BELOW 12,000 FEET WITH NO
SIGNIFICANT WEATHER AND/OR OBSTRUCTIONS TO VISIBILITY.

...SOUTH CENTRAL NEBRASKA...

CITY           SKY/WX    TMP DP  RH WIND       PRES   REMARKS
GRAND ISLAND   CLOUDY    28  24  85 S13       30.13F FOG     WCI  17
HASTINGS       CLOUDY    27  23  85 S10       30.13F WCI  17
KEARNEY        CLOUDY    30  27  86 S16       30.09F WCI  19
ORD            CLOUDY    31  28  89 S14       30.06F WCI  21
YORK           CLOUDY    27  23  86 S10       30.14F WCI  17
AURORA         CLOUDY    28  24  86 S10       30.13F WCI  18
LEXINGTON      CLOUDY    33  29  85 SW13      30.08F WCI  24
HOLDREGE       CLOUDY    31  28  89 S12G18    30.10S WCI  22
HEBRON         CLOUDY    26  23  89 S5        30.20F FOG     WCI  20

...NEBRASKA PANHANDLE...

CITY           SKY/WX    TMP DP  RH WIND       PRES   REMARKS
CHADRON        MOSUNNY   57  29  34 NW23G36   30.06R
ALLIANCE       CLOUDY    50  33  52 NW13      30.06F
SCOTTSBLUFF    CLOUDY    58  28  32 NW22      30.09F
SIDNEY         CLOUDY    53  31  42 NW12      30.11S

...WESTERN AND NORTH CENTRAL NEBRASKA...

CITY           SKY/WX    TMP DP  RH WIND       PRES   REMARKS
VALENTINE      SUNNY     51  32  48 NW20G26   29.97F
AINSWORTH      SUNNY     48  32  54 W12       29.98F
ONEILL         CLOUDY    28  28  96 S9        30.06F FOG     WCI  20
BROKEN BOW     CLOUDY    34  30  85 S13       30.05F WCI  25
IMPERIAL       SUNNY     51  30  44 NW12      30.06F
NORTH PLATTE   MOSUNNY   43  31  62 SW7       30.04F
MCCOOK         SUNNY     42  33  70 VRB5      30.06F

...EASTERN NEBRASKA...

CITY           SKY/WX    TMP DP  RH WIND       PRES   REMARKS
NORFOLK        CLOUDY    25  20  81 S13       30.12F WCI  14
SO SIOUX CITY  LGT SNOW  19  12  74 SE12      30.21F WCI   7
TEKAMAH        CLOUDY    19  11  70 SE10      30.22F WCI   7
COLUMBUS       CLOUDY    25  12  58 SE14      30.14F WCI  13
ALBION         CLOUDY    27  23  85 S14       30.08F WCI  15
OMAHA EPPLEY   LGT SNOW  22  15  75 SE9       30.21F WCI  12
OFFUTT AFB     FLURRIES  25  16  68 E8        30.20F WCI  16
MILLARD        LGT SNOW  24  15  69 SE7       30.22F WCI  15
LINCOLN        CLOUDY    26  21  81 S9        30.21F WCI  17
NEBRASKA CITY  PTSUNNY   31  19  62 S10       30.20F WCI  22
BEATRICE       CLOUDY    27  22  81 SE8       30.20F WCI  18
FALLS CITY     CLOUDY    33  20  58 E8        30.22F WCI  26

...NORTHERN KANSAS...

CITY           SKY/WX    TMP DP  RH WIND       PRES   REMARKS
GOODLAND       SUNNY     60  29  30 W16       30.08F
HILL CITY      SUNNY     42  33  70 S9        30.12F
NORTON         CLEAR     36  27  69 S9        30.09F WCI  29
PHILLIPSBURG   CLOUDY    36  30  80 CALM      30.15F
SMITH CENTER   CLOUDY    30  27  86 S3        30.15F
BELOIT         CLOUDY    28  25  86 S7        30.18F WCI  21
HAYS           SUNNY     41  25  52 S8        30.14F
RUSSELL        SUNNY     37  28  70 S8        30.14F WCI  31
CONCORDIA      CLOUDY    28  23  81 S7        30.19F WCI  21
SALINA         PTSUNNY   35  24  64 CALM      30.21F
TOPEKA         CLOUDY    37  21  52 E6        30.23F WCI  32



USA.gov is the U.S. government's official web portal to all federal, state and local government web resources and services.